SAOCOM 1A

operational
NORAD ID: 43641 Int'l Des: 2018-076 Owner: CONAE Country: AR
LEOCIRCULARRETROGRADESSO

Über SAOCOM 1A

Beschreibung wird geladen...

Live-Position

3D-Globus wird geladen...

Nächste Überflüge

Höhenverlauf

Altitude vs Time

uPlot chart will show altitude changes over time

Zweizeiliger Elementsatz

1 43641U 18076A 26063.62970616 .00000883 00000-0 11747-3 0 9996
2 43641 97.8882 251.8737 0001325 82.1775 277.9589 14.82164315400619
Epoch: 4. März 2026 • Age: 19 hours

Aktueller Status

Höhe 635.0 km
Geschwindigkeit 7.55 km/s
Subsatellitenpunkt 80.36°N, 41.94°E
Startdatum 8. Okt. 2018
Alter 7.4 years
Typ other

Technische Details

Klassifizierung Payload
Masse 3000.00 kg
Trockenmasse 2700.00 kg
Gesamtmasse 3000.00 kg
Länge 4.50 m
Durchmesser 3.00 m
Spannweite 10.00 m
Form Cyl+ 2 panels
Hersteller INVAP
Bus-Typ Saocom
Phasenstatus In Orbit
Besitzer/Staat CONAE/AR

Große Konstellationen

Loading constellations...